Weather History for Fort Myers Airport, FL

Change the Weather History Date:

Saturday, January 5, 2013

  Actual Average Record
Temperature  
Mean Temperature 70 °F -  
Max Temperature 78 °F 73 °F 86 °F (1947)
Min Temperature 62 °F 53 °F 27 °F (2001)
Cooling Degree Days 5    
Growing Degree Days 20 (Base 50)    
Moisture  
Dew Point 62 °F    
Average Humidity 83    
Maximum Humidity 96    
Minimum Humidity 60    
Precipitation  
Precipitation 0.00 in - - ()
Sea Level Pressure  
Sea Level Pressure 30.22 in    
Wind  
Wind Speed 8 mph (ENE)    
Max Wind Speed 14 mph    
Max Gust Speed -    
Visibility 8 miles    
Events      
Averages and records for this station are not official NWS values.
T = Trace of Precipitation, MM = Missing Value Source: NWS Daily Summary

Daily Weather History Graph

Daily Weather History Graph

Search for Another Location

Airport:

Trip Planner

Search our weather history database for the weather conditions in past years. The results will help you decide how hot, cold, wet, or windy it might be!

Date:

Astronomy

Jan. 05, 2013 Rise Set
Actual Time 7:16 AM EST 5:49 PM EST
Civil Twilight 6:51 AM EST 6:14 PM EST
Nautical Twilight 6:22 AM EST 6:42 PM EST
Astronomical Twilight 5:54 AM EST 7:11 PM EST
Moon 12:40 AM EST (1/5) 12:21 PM EST (1/5)
Length of Visible Light 11h 23m
Length of Day
10h 32m
Last Quarter, 44% of the Moon is Illuminated
Jan 5
Last Quarter
Jan 11
New
Jan 18
First Quarter
Jan 26
Full
Feb 3
Last Quarter

Hourly Weather History & Observations

Time (EST) Temp. Dew Point Humidity Pressure Visibility Wind Dir Wind Speed Gust Speed Precip Events Conditions
12:53 AM 63.0 °F 61.0 °F 93% 30.22 in 5.0 mi ENE 6.9 mph - N/A   Overcast
1:39 AM 62.6 °F 60.8 °F 94% 30.23 in 2.0 mi NNE 6.9 mph - N/A   Overcast
1:53 AM 62.1 °F 61.0 °F 96% 30.22 in 2.0 mi NNE 10.4 mph - N/A   Overcast
2:04 AM 62.6 °F 60.8 °F 94% 30.22 in 1.8 mi NNE 8.1 mph - N/A   Overcast
2:15 AM 62.6 °F 60.8 °F 94% 30.21 in 2.0 mi NE 10.4 mph - N/A   Overcast
2:38 AM 62.6 °F 60.8 °F 94% 30.22 in 4.0 mi NE 11.5 mph - N/A   Overcast
2:53 AM 62.1 °F 61.0 °F 96% 30.21 in 3.0 mi NNE 9.2 mph - N/A   Overcast
3:00 AM 62.6 °F 60.8 °F 94% 30.22 in 2.0 mi NNE 8.1 mph - N/A   Overcast
3:18 AM 62.6 °F 60.8 °F 94% 30.22 in 4.0 mi NNE 11.5 mph - N/A   Overcast
3:53 AM 62.1 °F 60.1 °F 93% 30.21 in 10.0 mi NE 9.2 mph - N/A   Overcast
4:53 AM 62.1 °F 60.1 °F 93% 30.21 in 10.0 mi ENE 6.9 mph - N/A   Overcast
5:53 AM 62.1 °F 60.1 °F 93% 30.22 in 10.0 mi NE 9.2 mph - N/A   Overcast
6:53 AM 62.1 °F 59.0 °F 90% 30.23 in 10.0 mi ENE 8.1 mph - N/A   Overcast
7:53 AM 62.1 °F 60.1 °F 93% 30.25 in 10.0 mi ENE 5.8 mph - N/A   Overcast
8:53 AM 63.0 °F 59.0 °F 87% 30.26 in 10.0 mi ENE 11.5 mph - N/A   Overcast
9:19 AM 64.4 °F 60.8 °F 88% 30.27 in 10.0 mi ENE 8.1 mph - N/A   Scattered Clouds
9:53 AM 66.0 °F 60.1 °F 81% 30.27 in 10.0 mi ENE 6.9 mph - N/A   Clear
10:53 AM 70.0 °F 61.0 °F 73% 30.26 in 10.0 mi East 10.4 mph - N/A   Clear
11:35 AM 71.6 °F 60.8 °F 69% 30.25 in 10.0 mi ENE 10.4 mph - N/A   Mostly Cloudy
11:46 AM 73.4 °F 60.8 °F 65% 30.24 in 10.0 mi East 10.4 mph - N/A   Scattered Clouds
11:53 AM 72.0 °F 61.0 °F 68% 30.23 in 10.0 mi ENE 9.2 mph - N/A   Mostly Cloudy
12:11 PM 73.4 °F 60.8 °F 65% 30.23 in 10.0 mi ENE 9.2 mph - N/A   Scattered Clouds
12:53 PM 73.9 °F 62.1 °F 66% 30.21 in 10.0 mi ENE 8.1 mph - N/A   Scattered Clouds
1:53 PM 77.0 °F 63.0 °F 62% 30.17 in 10.0 mi East 11.5 mph - N/A   Mostly Cloudy
2:53 PM 78.1 °F 63.0 °F 60% 30.16 in 10.0 mi East 13.8 mph - N/A   Mostly Cloudy
3:53 PM 77.0 °F 63.0 °F 62% 30.16 in 10.0 mi ENE 9.2 mph - N/A   Mostly Cloudy
4:53 PM 75.9 °F 64.0 °F 67% 30.17 in 10.0 mi East 8.1 mph - N/A   Mostly Cloudy
5:53 PM 73.0 °F 64.0 °F 73% 30.18 in 10.0 mi NE 3.5 mph - N/A   Mostly Cloudy
6:53 PM 73.0 °F 64.9 °F 76% 30.19 in 10.0 mi Calm Calm - N/A   Overcast
7:53 PM 70.0 °F 64.0 °F 81% 30.21 in 10.0 mi ENE 3.5 mph - N/A   Partly Cloudy
8:53 PM 69.1 °F 64.0 °F 84% 30.22 in 10.0 mi East 8.1 mph - N/A   Partly Cloudy
9:53 PM 68.0 °F 64.0 °F 87% 30.22 in 10.0 mi ENE 5.8 mph - N/A   Clear
10:53 PM 66.9 °F 64.0 °F 90% 30.21 in 10.0 mi ENE 4.6 mph - N/A   Clear
11:53 PM 66.0 °F 64.0 °F 93% 30.19 in 7.0 mi ENE 3.5 mph - N/A   Clear